Location: Anglesey
(53.1800°N, 4.2200°W)
Time: 20:44:02
(UTC+00:00)

OTV 5 (USA 277) - Visible Passes

Search period start: 10 December 2018 00:00
Search period end: 20 December 2018 00:00
Orbit: 341 x 347 km, 54.5° (Epoch: 09 December)

Date Brightness Start Highest point End Pass type
(mag) Time Alt. Az. Time Alt. Az. Time Alt. Az.
10 Dec ? 05:09:01 15° E 05:09:01 15° E 05:09:35 10° E visible
10 Dec ? 06:40:26 27° WSW 06:41:30 38° SSW 06:44:13 10° SE visible
11 Dec ? 05:31:55 25° ESE 05:31:55 25° ESE 05:33:16 10° ESE visible
11 Dec ? 07:03:21 13° WSW 07:04:56 19° SW 07:07:03 10° S visible
12 Dec ? 05:54:51 30° SSE 05:54:51 30° SSE 05:56:41 10° SE visible
13 Dec ? 06:17:51 19° SSW 06:17:51 19° SSW 06:19:34 10° S visible
